Regional Weather Roundup
Issued by NWS New Orleans/Baton Rouge, LA

Home | Current Version | Previous Version | Graphics & Text | Print | Product List | Glossary On
Versions: 1 2 3 4 5 6 7 8 9 10 11 12 13 14 15 16 17 18 19 20 21 22 23 24 25 26 27 28 29 30 31 32 33 34 35 36 37 38 39 40 41 42 43 44 45 46 47 48 49 50
711
ASUS44 KLIX 201001
RWRLIX
NEW ORLEANS REGIONAL WEATHER ROUNDUP
NATIONAL WEATHER SERVICE NEW ORLEANS LA
500 AM CDT WED AUG 20 2014

NOTE: "FAIR" INDICATES FEW OR NO CLOUDS BELOW 12,000 FEET WITH NO
      SIGNIFICANT WEATHER AND/OR OBSTRUCTIONS TO VISIBILITY.
      SKY/WX - SKY CONDITION AND SIGNIFICANT WEATHER.
      TMP - AIR TEMPERATURE.     DP    - DEWPOINT TEMPERATURE.
      RH  - RELATIVE HUMIDITY.   PRES  - PRESSURE.
      HI  - HEAT INDEX.          WCI   - WIND CHILL INDEX.

*  THESE STATIONS ARE NOT NWS OR FAA STATIONS AND ARE NOT UNDER
   NWS QUALITY CONTROL.

LAZ038-040-048-061>063-065>067-069-201100-
SOUTHEAST LOUISIANA

CITY           SKY/WX    TMP DP  RH WIND       PRES   REMARKS
N.O. AUDUBON   NOT AVBL
N.O. INTL ARPT MOCLDY    79  75  87 CALM      29.99R
N.O. LAKEFRONT PTCLDY    82  76  81 CALM      30.00R
N.O. DOWNTOWN*   N/A     82  73  74 CALM      30.00R
SLIDELL        PTCLDY    75  72  90 CALM      29.99R
BATON ROUGE    CLEAR     73  70  90 NE3       29.99R
BOOTHVILLE     CLEAR     84  76  76 SW7       30.00R
BELLE CHASSE   PTCLDY    75  71  87 CALM      29.99R
BOGALUSA*        N/A     75  72  88 CALM      30.01R
GALLIANO*      NOT AVBL
NEW ROADS*       N/A     70  70  98 CALM      30.00R
GONZALES*        N/A     74  74 100 CALM      29.98S
HAMMOND*       NOT AVBL
HOUMA*         CLEAR     74  71  91 CALM      29.99R FOG
PORT FOURCHON* SUNNY     84  75  74 S6        30.01R

$$

MSZ070-080>082-201100-
SOUTHERN MISSISSIPPI

CITY           SKY/WX    TMP DP  RH WIND       PRES   REMARKS
MCCOMB         PTCLDY    73  71  93 CALM      30.01R
GULFPORT       PTCLDY    79  76  90 CALM      29.99R
BILOXI         PTCLDY    80  77  89 CALM      30.00R
PASCAGOULA     CLEAR     76  75  97 CALM      30.00R

$$

COASTAL OBSERVATIONS
LAKE AND NEARSHORE STATIONS

STATION/POSITION TIME  TEMP    WIND        PRES    WAVE
                       AIR SEA DIR/SP/G            HT/PER
                 (UTC) (F)     (DEG/KT/KT) (MB)    (FT/S)
PASCAGOULA       0900   84     230/ 12/ 15 1015.0
WAVELAND YACHT   0900   80     270/  3/  4 1014.9
GRAND ISLE       0900   84 88  220/  3/  6 1016.2
SOUTHWEST PASS   0900   85 88  200/  7/  9 1015.6
NEW CANAL        0900   81 84  230/  2/  3 1015.8
SHELL BEACH      0900   81 82  220/  2/  3 1015.3

OFFSHORE STATIONS

STATION/POSITION TIME  TEMP    WIND        PRES    WAVE
                       AIR SEA DIR/SP/G            HT/PER
                 (UTC) (F)     (DEG/KT/KT) (MB)    (FT/S)
64 S DAUPHIN ISL 0854   85 87  220/ 12/ 12 1015.6

$$




USA.gov is the U.S. government's official web portal to all federal, state and local government web resources and services.